Flag for Belgium Weather past 2 weeks in Charleroi, Belgium

Now
57 °F

Passing clouds.


Feels Like: 56 °F
Forecast: 51 / 65 °F
Wind: 6 mph from West

Location: Charleroi / Gosselies

Current Time: Jul 29, 2015 at 10:31:21 PM

Latest Report: Jul 29, 2015 at 9:50 PM


Visibility: N/A

Pressure: 29.95 "Hg

Humidity: 59%

Dew point: 43 °F

Location of CharleroiLocation

Historic Weather in Charleroi — Graph

°F

Charleroi temperature yesterday

Maximum temperature yesterday: 64 °F (at 2:20 PM)
Minimum temperature yesterday: 54 °F (at 11:20 PM)
Average temperature yesterday: 58 °F

Past Weeks' High & Low Weather Summary

 TemperatureHumidityPressure
High86 °F (Jul 17, 5:20 PM)100% (Jul 16, 12:50 AM)30.15 "Hg (Jul 16, 12:50 AM)
Low50 °F (Jul 26, 3:50 AM)37% (Jul 17, 4:50 PM)29.53 "Hg (Jul 25, 5:20 AM)
Average65 °F74%29.92 "Hg
* Reported Jul 14 9:20 PM — Jul 29 9:20 PM, Charleroi, Weather by CustomWeather, © 2015

Note: Actual official high and low records may vary slightly from our data, if they occured in-between our weather recording intervals... More about our weather records

Advertising

Charleroi weather history for previous 24 hours

 ConditionsComfort  
Time TempWeatherWind HumidityBarometerVisibility
9:20 PM
Wed, Jul 29
59 °FPassing clouds.5 mph59%29.95 "HgN/A
8:50 PM61 °FPassing clouds.7 mph55%29.92 "HgN/A
8:20 PM61 °FPassing clouds.7 mph55%29.92 "HgN/A
7:50 PM61 °FPassing clouds.7 mph55%29.92 "HgN/A
7:20 PM63 °FPassing clouds.8 mph49%29.92 "HgN/A
6:50 PM63 °FPassing clouds.9 mph49%29.92 "HgN/A
6:20 PM64 °FPassing clouds.7 mph46%29.89 "HgN/A
5:50 PM66 °FPassing clouds.12 mph43%29.89 "HgN/A
5:20 PM63 °FPassing clouds.13 mph45%29.89 "HgN/A
4:50 PM64 °FPassing clouds.13 mph46%29.89 "HgN/A
4:20 PM66 °FPassing clouds.13 mph43%29.86 "HgN/A
3:50 PM63 °FPassing clouds.13 mph49%29.86 "HgN/A
3:20 PM64 °FPassing clouds.15 mph52%29.86 "HgN/A
2:50 PM63 °FPassing clouds.16 mph59%29.86 "HgN/A
2:20 PM61 °FPassing clouds.10 mph72%29.86 "HgN/A
1:50 PM61 °FSprinkles. Passing clouds.12 mph68%29.83 "Hg3 mi
1:20 PM57 °FPartly sunny.17 mph77%29.86 "HgN/A
12:50 PM63 °FScattered clouds.13 mph59%29.83 "HgN/A
12:20 PM61 °FScattered clouds.15 mph55%29.83 "HgN/A
11:50 AM61 °FScattered clouds.14 mph55%29.83 "HgN/A
11:20 AM61 °FScattered clouds.13 mph55%29.83 "HgN/A
10:50 AM61 °FScattered clouds.15 mph59%29.83 "HgN/A
10:20 AM59 °FScattered clouds.15 mph63%29.83 "HgN/A
9:50 AM57 °FPassing clouds.14 mph67%29.83 "HgN/A
9:20 AM55 °FPassing clouds.14 mph77%29.83 "HgN/A
8:50 AM54 °FPassing clouds.14 mph82%29.83 "HgN/A
8:20 AM52 °FPassing clouds.13 mph88%29.83 "HgN/A
7:50 AM52 °FPassing clouds.14 mph88%29.80 "HgN/A
7:20 AM52 °FPassing clouds.10 mph88%29.83 "HgN/A
6:50 AM50 °FPassing clouds.12 mph94%29.83 "HgN/A
6:20 AM50 °FPassing clouds.13 mph94%29.83 "HgN/A
5:50 AM50 °FPassing clouds.12 mph94%29.83 "HgN/A
4:50 AM50 °FPassing clouds.13 mph94%29.83 "HgN/A
4:20 AM52 °FPassing clouds.13 mph88%29.83 "HgN/A
3:50 AM52 °FPassing clouds.13 mph88%29.83 "HgN/A
3:20 AM52 °FPassing clouds.12 mph88%29.83 "HgN/A
2:50 AM52 °FClear.14 mph88%29.83 "Hg10 mi
2:20 AM52 °FClear.14 mph88%29.83 "Hg10 mi
1:50 AM52 °FClear.14 mph88%29.83 "Hg10 mi
1:20 AM52 °FClear.12 mph88%29.83 "Hg10 mi
12:50 AM54 °FClear.12 mph82%29.83 "Hg10 mi
12:20 AM54 °FPassing clouds.13 mph82%29.83 "HgN/A
11:50 PM
Tue, Jul 28
54 °FPassing clouds.14 mph82%29.83 "HgN/A
11:20 PM54 °FPassing clouds.13 mph82%29.83 "HgN/A
10:50 PM57 °FPassing clouds.12 mph67%29.83 "HgN/A
10:20 PM57 °FPassing clouds.12 mph63%29.83 "HgN/A
Weather by CustomWeather, © 2015

See weather overviewHow to use our weather pages